Regional Weather Roundup
Issued by NWS New Orleans/Baton Rouge, LA

Home | Current Version | Previous Version | Graphics & Text | Print | Product List | Glossary On
Versions: 1 2 3 4 5 6 7 8 9 10 11 12 13 14 15 16 17 18 19 20 21 22 23 24 25 26 27 28 29 30 31 32 33 34 35 36 37 38 39 40 41 42 43 44 45 46 47 48 49 50
451
ASUS44 KLIX 191710
RWRLIX
NEW ORLEANS REGIONAL WEATHER ROUNDUP
NATIONAL WEATHER SERVICE NEW ORLEANS LA
1100 AM CST FRI DEC 19 2014

NOTE: "FAIR" INDICATES FEW OR NO CLOUDS BELOW 12,000 FEET WITH NO
      SIGNIFICANT WEATHER AND/OR OBSTRUCTIONS TO VISIBILITY.
      SKY/WX - SKY CONDITION AND SIGNIFICANT WEATHER.
      TMP - AIR TEMPERATURE.     DP    - DEWPOINT TEMPERATURE.
      RH  - RELATIVE HUMIDITY.   PRES  - PRESSURE.
      HI  - HEAT INDEX.          WCI   - WIND CHILL INDEX.

*  THESE STATIONS ARE NOT NWS OR FAA STATIONS AND ARE NOT UNDER
   NWS QUALITY CONTROL.

LAZ038-040-048-061>063-065>067-069-191800-
SOUTHEAST LOUISIANA

CITY           SKY/WX    TMP DP  RH WIND       PRES   REMARKS
N.O. AUDUBON     N/A     59  53  80 MISG        N/A
N.O. INTL ARPT CLOUDY    54  50  86 E13       30.11F
N.O. LAKEFRONT CLOUDY    55  51  86 E12       30.12F
N.O. DOWNTOWN* CLOUDY    55  48  76 NE6       30.12F
SLIDELL        CLOUDY    51  48  89 NE6       30.11F
BATON ROUGE    CLOUDY    55  53  93 E9        30.09F
BOOTHVILLE     LGT RAIN  57  56  96 NE10      30.11F FOG
BELLE CHASSE   CLOUDY    57  52  83 E16G24    30.11F
BOGALUSA*        N/A     50  45  84 E9        30.16F
GALLIANO*      CLOUDY    59  56  89 MISG      30.11F
NEW ROADS*     CLOUDY    54  53  97 NE7       30.11R
GONZALES*      RAIN      57  57 100 E3        30.10F
HAMMOND*       NOT AVBL
HOUMA*         LGT RAIN  55  54  94 NE12G20   30.11F FOG
PORT FOURCHON* PTSUNNY   61  57  88 E14G23    30.12F FOG

$$

MSZ070-080>082-191800-
SOUTHERN MISSISSIPPI

CITY           SKY/WX    TMP DP  RH WIND       PRES   REMARKS
MCCOMB         CLOUDY    47  43  86 E10       30.12F
GULFPORT       CLOUDY    49  46  90 NE10      30.13F
BILOXI         CLOUDY    49  49 100 NE13      30.14F
PASCAGOULA     CLOUDY    50  46  86 NE7       30.16F
STENNIS ARPT*  CLOUDY    48  45  87 NE7       30.13F

$$

COASTAL OBSERVATIONS
LAKE AND NEARSHORE STATIONS

STATION/POSITION TIME  TEMP    WIND        PRES    WAVE
                       AIR SEA DIR/SP/G            HT/PER
                 (UTC) (F)     (DEG/KT/KT) (MB)    (FT/S)
PASCAGOULA       1700   50      50/ 11/ 15 1020.4
WAVELAND YACHT   1700   49      50/ 11/ 13 1019.4
GRAND ISLE       1700   59 62   70/ 13/ 16 1019.8
SOUTHWEST PASS   1700   60                 1019.3
NEW CANAL        1700   54 57   60/ 12/ 13 1020.1
SHELL BEACH      1700   53 60   60/ 19/ 23 1019.6

OFFSHORE STATIONS

STATION/POSITION TIME  TEMP    WIND        PRES    WAVE
                       AIR SEA DIR/SP/G            HT/PER
                 (UTC) (F)     (DEG/KT/KT) (MB)    (FT/S)
64 S DAUPHIN ISL 1700   68 75   80/ 19/ 23 1019.4    5/ 5

$$




USA.gov is the U.S. government's official web portal to all federal, state and local government web resources and services.